www.cux-wetter.de
Wetterdaten: Dienstag, 30.04.2013
Datum Zeit Temp. A. Feuchte A. Luftdruck Regen Wind Richtung Richtung Sonnenschein Solar Taupunkt Windchill Windben
30.04.2013 00:00 7,7 C 74 % 1016,5 hPa 0,0 l/m 27,0 km/h (5 Bft) W 270 0 min 0 W/m 3,4 C -1,8 C 27,0 km/h (5 Bft)
30.04.2013 00:15 7,6 C 75 % 1016,5 hPa 0,0 l/m 24,8 km/h (4 Bft) W 260 0 min 0 W/m 3,5 C -1,4 C 24,8 km/h (4 Bft)
30.04.2013 00:30 7,6 C 75 % 1016,5 hPa 0,0 l/m 27,8 km/h (5 Bft) W 275 0 min 0 W/m 3,5 C -2,2 C 27,8 km/h (5 Bft)
30.04.2013 00:45 7,4 C 76 % 1016,5 hPa 0,0 l/m 22,9 km/h (4 Bft) W 265 0 min 0 W/m 3,5 C -1,1 C 22,9 km/h (4 Bft)
30.04.2013 01:00 7,2 C 76 % 1017,5 hPa 0,0 l/m 21,1 km/h (4 Bft) W 270 0 min 0 W/m 3,3 C -0,7 C 21,1 km/h (4 Bft)
30.04.2013 01:15 7,2 C 77 % 1017,5 hPa 0,0 l/m 26,7 km/h (4 Bft) W 275 0 min 0 W/m 3,4 C -2,4 C 26,7 km/h (4 Bft)
30.04.2013 01:30 7,2 C 77 % 1017,5 hPa 0,0 l/m 20,5 km/h (4 Bft) W 275 0 min 0 W/m 3,4 C -0,5 C 20,5 km/h (4 Bft)
30.04.2013 01:45 7,0 C 78 % 1017,5 hPa 0,0 l/m 21,3 km/h (4 Bft) W 260 0 min 0 W/m 3,4 C -1,1 C 21,3 km/h (4 Bft)
30.04.2013 02:00 7,2 C 78 % 1017,5 hPa 0,0 l/m 23,7 km/h (4 Bft) W 270 0 min 0 W/m 3,6 C -1,6 C 23,7 km/h (4 Bft)
30.04.2013 02:15 7,1 C 78 % 1017,5 hPa 0,0 l/m 24,0 km/h (4 Bft) W 265 0 min 0 W/m 3,5 C -1,8 C 24,0 km/h (4 Bft)
30.04.2013 02:30 7,4 C 76 % 1017,5 hPa 0,0 l/m 32,1 km/h (5 Bft) W 280 0 min 0 W/m 3,5 C -3,5 C 32,1 km/h (5 Bft)
30.04.2013 02:45 7,6 C 76 % 1017,5 hPa 0,0 l/m 30,5 km/h (5 Bft) W 270 0 min 0 W/m 3,6 C -2,8 C 30,5 km/h (5 Bft)
30.04.2013 03:00 7,7 C 75 % 1017,5 hPa 0,0 l/m 32,6 km/h (5 Bft) W 275 0 min 0 W/m 3,6 C -3,2 C 32,6 km/h (5 Bft)
30.04.2013 03:15 7,7 C 75 % 1017,5 hPa 0,0 l/m 26,1 km/h (4 Bft) W 275 0 min 0 W/m 3,6 C -1,6 C 26,1 km/h (4 Bft)
30.04.2013 03:30 7,7 C 76 % 1017,5 hPa 0,0 l/m 29,3 km/h (5 Bft) W-NW 285 0 min 0 W/m 3,7 C -2,4 C 29,3 km/h (5 Bft)
30.04.2013 03:45 7,7 C 76 % 1017,5 hPa 0,0 l/m 26,3 km/h (4 Bft) W 270 0 min 0 W/m 3,7 C -1,6 C 26,3 km/h (4 Bft)
30.04.2013 04:00 7,7 C 77 % 1017,5 hPa 0,0 l/m 28,5 km/h (5 Bft) W 275 0 min 0 W/m 3,9 C -2,2 C 28,5 km/h (5 Bft)
30.04.2013 04:15 7,5 C 77 % 1017,5 hPa 0,0 l/m 26,4 km/h (4 Bft) W 270 0 min 0 W/m 3,7 C -1,9 C 26,4 km/h (4 Bft)
30.04.2013 04:30 7,5 C 78 % 1018,5 hPa 0,0 l/m 22,0 km/h (4 Bft) W 270 0 min 0 W/m 3,9 C -0,6 C 22,0 km/h (4 Bft)
30.04.2013 04:45 7,3 C 78 % 1018,5 hPa 0,0 l/m 23,3 km/h (4 Bft) W 270 0 min 0 W/m 3,7 C -1,3 C 23,3 km/h (4 Bft)
30.04.2013 05:00 7,3 C 78 % 1018,5 hPa 0,0 l/m 25,0 km/h (4 Bft) W 270 0 min 0 W/m 3,7 C -1,8 C 25,0 km/h (4 Bft)
30.04.2013 05:15 7,2 C 78 % 1018,5 hPa 0,0 l/m 23,9 km/h (4 Bft) W 265 0 min 0 W/m 3,6 C -1,6 C 23,9 km/h (4 Bft)
30.04.2013 05:30 7,2 C 78 % 1018,5 hPa 0,0 l/m 25,8 km/h (4 Bft) W 270 0 min 0 W/m 3,6 C -2,2 C 25,8 km/h (4 Bft)
30.04.2013 05:45 7,2 C 79 % 1018,5 hPa 0,0 l/m 22,3 km/h (4 Bft) W 280 0 min 0 W/m 3,8 C -1,1 C 22,3 km/h (4 Bft)
30.04.2013 06:00 7,2 C 79 % 1018,5 hPa 0,0 l/m 25,5 km/h (4 Bft) W 270 0 min 0 W/m 3,8 C -2,1 C 25,5 km/h (4 Bft)
30.04.2013 06:15 7,2 C 79 % 1018,5 hPa 0,0 l/m 21,0 km/h (4 Bft) W 265 0 min 0 W/m 3,8 C -0,7 C 21,0 km/h (4 Bft)
30.04.2013 06:30 7,3 C 80 % 1018,5 hPa 0,0 l/m 20,7 km/h (4 Bft) W 270 0 min 0 W/m 4,1 C -0,5 C 20,7 km/h (4 Bft)
30.04.2013 06:45 7,4 C 81 % 1018,5 hPa 0,0 l/m 26,5 km/h (4 Bft) W 275 0 min 0 W/m 4,4 C -2,1 C 26,5 km/h (4 Bft)
30.04.2013 07:00 7,5 C 81 % 1019,5 hPa 0,0 l/m 26,1 km/h (4 Bft) W 270 0 min 0 W/m 4,5 C -1,9 C 26,1 km/h (4 Bft)
30.04.2013 07:15 7,6 C 81 % 1019,5 hPa 0,0 l/m 26,1 km/h (4 Bft) W 275 0 min 0 W/m 4,6 C -1,7 C 26,1 km/h (4 Bft)
30.04.2013 07:30 7,7 C 81 % 1019,5 hPa 0,0 l/m 24,5 km/h (4 Bft) W 275 0 min 0 W/m 4,7 C -1,1 C 24,5 km/h (4 Bft)
30.04.2013 07:45 7,8 C 81 % 1019,5 hPa 0,0 l/m 21,6 km/h (4 Bft) W 275 0 min 0 W/m 4,7 C -0,1 C 21,6 km/h (4 Bft)
30.04.2013 08:00 7,9 C 81 % 1019,5 hPa 0,0 l/m 21,3 km/h (4 Bft) W 270 0 min 0 W/m 4,8 C 0,1 C 21,3 km/h (4 Bft)
30.04.2013 08:15 8,0 C 81 % 1019,5 hPa 0,0 l/m 28,9 km/h (5 Bft) W 260 0 min 0 W/m 4,9 C -1,9 C 28,9 km/h (5 Bft)
30.04.2013 08:30 8,1 C 81 % 1020,5 hPa 0,0 l/m 27,8 km/h (5 Bft) W 270 0 min 0 W/m 5,0 C -1,5 C 27,8 km/h (5 Bft)
30.04.2013 08:45 8,2 C 81 % 1020,5 hPa 0,0 l/m 25,6 km/h (4 Bft) W 275 0 min 0 W/m 5,1 C -0,8 C 25,6 km/h (4 Bft)
30.04.2013 09:00 8,4 C 81 % 1020,5 hPa 0,0 l/m 24,6 km/h (4 Bft) W 275 0 min 0 W/m 5,3 C -0,2 C 24,6 km/h (4 Bft)
30.04.2013 09:15 8,7 C 81 % 1020,5 hPa 0,0 l/m 26,0 km/h (4 Bft) W 275 0 min 0 W/m 5,6 C -0,2 C 26,0 km/h (4 Bft)
30.04.2013 09:30 9,0 C 80 % 1020,5 hPa 0,0 l/m 23,5 km/h (4 Bft) W 275 0 min 0 W/m 5,7 C 0,9 C 23,5 km/h (4 Bft)
30.04.2013 09:45 9,4 C 79 % 1020,5 hPa 0,0 l/m 24,6 km/h (4 Bft) NW 315 0 min 0 W/m 5,9 C 1,1 C 24,6 km/h (4 Bft)
30.04.2013 10:00 9,4 C 76 % 1020,5 hPa 0,0 l/m 28,5 km/h (5 Bft) NW 305 0 min 0 W/m 5,4 C 0,1 C 28,5 km/h (5 Bft)
30.04.2013 10:15 9,6 C 76 % 1020,5 hPa 0,0 l/m 24,5 km/h (4 Bft) NW 305 0 min 0 W/m 5,6 C 1,4 C 24,5 km/h (4 Bft)
30.04.2013 10:30 9,9 C 74 % 1021,5 hPa 0,0 l/m 26,1 km/h (4 Bft) NW 320 0 min 0 W/m 5,5 C 1,4 C 26,1 km/h (4 Bft)
30.04.2013 10:45 10,5 C 73 % 1021,5 hPa 0,0 l/m 25,1 km/h (4 Bft) NW 320 0 min 0 W/m 5,9 C 2,5 C 25,1 km/h (4 Bft)
30.04.2013 10:59 10,8 C 71 % 1021,5 hPa 0,0 l/m 27,4 km/h (5 Bft) NW 315 0 min 0 W/m 5,8 C 2,3 C 27,4 km/h (5 Bft)
30.04.2013 11:15 11,0 C 71 % 1021,5 hPa 0,0 l/m 24,5 km/h (4 Bft) NW 320 0 min 0 W/m 5,9 C 3,3 C 24,5 km/h (4 Bft)
30.04.2013 11:30 11,2 C 71 % 1021,5 hPa 0,0 l/m 22,3 km/h (4 Bft) NW 320 0 min 0 W/m 6,1 C 4,2 C 22,3 km/h (4 Bft)
30.04.2013 11:45 11,2 C 71 % 1021,5 hPa 0,0 l/m 24,3 km/h (4 Bft) N-NW 340 0 min 0 W/m 6,1 C 3,6 C 24,3 km/h (4 Bft)
30.04.2013 12:00 11,2 C 71 % 1022,5 hPa 0,0 l/m 21,3 km/h (4 Bft) NW 320 0 min 0 W/m 6,1 C 4,4 C 21,3 km/h (4 Bft)
30.04.2013 12:15 11,1 C 71 % 1022,5 hPa 0,0 l/m 26,6 km/h (4 Bft) N-NW 345 0 min 0 W/m 6,0 C 2,9 C 26,6 km/h (4 Bft)
30.04.2013 12:29 11,0 C 71 % 1022,5 hPa 0,0 l/m 21,9 km/h (4 Bft) NW 320 0 min 0 W/m 5,9 C 4,0 C 21,9 km/h (4 Bft)
30.04.2013 12:44 11,0 C 71 % 1022,5 hPa 0,0 l/m 21,6 km/h (4 Bft) N-NO 15 0 min 0 W/m 5,9 C 4,1 C 21,6 km/h (4 Bft)
30.04.2013 13:00 10,9 C 71 % 1022,5 hPa 0,0 l/m 19,6 km/h (3 Bft) N 355 0 min 0 W/m 5,9 C 4,6 C 19,6 km/h (3 Bft)
30.04.2013 13:15 10,5 C 73 % 1022,5 hPa 0,0 l/m 19,4 km/h (3 Bft) N 350 0 min 0 W/m 5,9 C 4,1 C 19,4 km/h (3 Bft)
30.04.2013 13:29 10,2 C 73 % 1022,5 hPa 0,0 l/m 23,3 km/h (4 Bft) N 350 0 min 0 W/m 5,6 C 2,6 C 23,3 km/h (4 Bft)
30.04.2013 13:45 10,0 C 73 % 1023,5 hPa 0,0 l/m 23,8 km/h (4 Bft) N-NO 20 0 min 0 W/m 5,4 C 2,2 C 23,8 km/h (4 Bft)
30.04.2013 14:00 10,0 C 74 % 1023,5 hPa 0,0 l/m 18,8 km/h (3 Bft) NW 315 0 min 0 W/m 5,6 C 3,7 C 18,8 km/h (3 Bft)
30.04.2013 14:14 10,0 C 74 % 1023,5 hPa 0,0 l/m 20,0 km/h (4 Bft) N 5 0 min 0 W/m 5,6 C 3,3 C 20,0 km/h (4 Bft)
30.04.2013 14:29 10,1 C 74 % 1023,5 hPa 0,0 l/m 21,5 km/h (4 Bft) N-NW 335 0 min 0 W/m 5,7 C 2,9 C 21,5 km/h (4 Bft)
30.04.2013 14:45 9,7 C 75 % 1023,5 hPa 0,0 l/m 22,1 km/h (4 Bft) N 5 0 min 0 W/m 5,5 C 2,2 C 22,1 km/h (4 Bft)
30.04.2013 15:00 9,6 C 75 % 1023,5 hPa 0,0 l/m 21,3 km/h (4 Bft) NO 50 0 min 0 W/m 5,4 C 2,4 C 21,3 km/h (4 Bft)
30.04.2013 15:14 9,5 C 76 % 1023,5 hPa 0,0 l/m 21,0 km/h (4 Bft) NO 50 0 min 0 W/m 5,5 C 2,3 C 21,0 km/h (4 Bft)
30.04.2013 15:30 9,4 C 76 % 1023,5 hPa 0,0 l/m 19,2 km/h (3 Bft) N-NO 20 0 min 0 W/m 5,4 C 2,8 C 19,2 km/h (3 Bft)
30.04.2013 15:45 10,0 C 75 % 1023,5 hPa 0,0 l/m 22,3 km/h (4 Bft) N-NO 30 0 min 0 W/m 5,8 C 2,6 C 22,3 km/h (4 Bft)
30.04.2013 16:00 9,8 C 75 % 1023,5 hPa 0,0 l/m 22,0 km/h (4 Bft) NO 50 0 min 0 W/m 5,6 C 2,4 C 22,0 km/h (4 Bft)
30.04.2013 16:14 9,7 C 75 % 1023,5 hPa 0,0 l/m 23,0 km/h (4 Bft) N-NO 30 0 min 0 W/m 5,5 C 2,0 C 23,0 km/h (4 Bft)
30.04.2013 16:30 9,7 C 75 % 1023,5 hPa 0,0 l/m 24,3 km/h (4 Bft) NO 50 0 min 0 W/m 5,5 C 1,6 C 24,3 km/h (4 Bft)
30.04.2013 16:45 9,6 C 74 % 1023,5 hPa 0,0 l/m 21,2 km/h (4 Bft) NO 40 0 min 0 W/m 5,2 C 2,4 C 21,2 km/h (4 Bft)
30.04.2013 17:00 9,4 C 73 % 1023,5 hPa 0,0 l/m 23,0 km/h (4 Bft) O-NO 70 0 min 0 W/m 4,8 C 1,6 C 23,0 km/h (4 Bft)
30.04.2013 17:14 9,2 C 74 % 1023,5 hPa 0,0 l/m 22,1 km/h (4 Bft) NO 55 0 min 0 W/m 4,8 C 1,6 C 22,1 km/h (4 Bft)
30.04.2013 17:30 8,9 C 75 % 1023,5 hPa 0,0 l/m 21,6 km/h (4 Bft) O 85 0 min 0 W/m 4,7 C 1,3 C 21,6 km/h (4 Bft)
30.04.2013 17:45 9,0 C 75 % 1023,5 hPa 0,0 l/m 21,8 km/h (4 Bft) O 100 0 min 0 W/m 4,8 C 1,4 C 21,8 km/h (4 Bft)
30.04.2013 18:00 9,2 C 73 % 1023,5 hPa 0,0 l/m 26,9 km/h (4 Bft) O 100 0 min 0 W/m 4,6 C 0,3 C 26,9 km/h (4 Bft)
30.04.2013 18:15 9,2 C 71 % 1024,5 hPa 0,0 l/m 23,1 km/h (4 Bft) O-SO 115 0 min 0 W/m 4,2 C 1,3 C 23,1 km/h (4 Bft)
30.04.2013 18:30 9,2 C 72 % 1024,5 hPa 0,0 l/m 24,1 km/h (4 Bft) O 95 0 min 0 W/m 4,4 C 1,0 C 24,1 km/h (4 Bft)
30.04.2013 18:45 8,9 C 72 % 1024,5 hPa 0,0 l/m 21,8 km/h (4 Bft) SW 235 0 min 0 W/m 4,1 C 1,3 C 21,8 km/h (4 Bft)
30.04.2013 19:00 8,7 C 72 % 1024,5 hPa 0,0 l/m 24,0 km/h (4 Bft) N 5 0 min 0 W/m 3,9 C 0,4 C 24,0 km/h (4 Bft)
30.04.2013 19:15 8,5 C 73 % 1024,5 hPa 0,0 l/m 20,2 km/h (4 Bft) N 355 0 min 0 W/m 3,9 C 1,3 C 20,2 km/h (4 Bft)
30.04.2013 19:30 8,3 C 72 % 1024,5 hPa 0,0 l/m 20,6 km/h (4 Bft) N 360 0 min 0 W/m 3,6 C 0,9 C 20,6 km/h (4 Bft)
30.04.2013 19:45 8,1 C 73 % 1024,5 hPa 0,0 l/m 21,6 km/h (4 Bft) NO 55 0 min 0 W/m 3,6 C 0,3 C 21,6 km/h (4 Bft)
30.04.2013 20:00 7,9 C 73 % 1024,5 hPa 0,0 l/m 21,5 km/h (4 Bft) O 95 0 min 0 W/m 3,4 C 0,1 C 21,5 km/h (4 Bft)
30.04.2013 20:15 7,8 C 72 % 1024,5 hPa 0,0 l/m 24,2 km/h (4 Bft) O-NO 65 0 min 0 W/m 3,1 C -0,9 C 24,2 km/h (4 Bft)
30.04.2013 20:30 7,7 C 73 % 1024,5 hPa 0,0 l/m 18,5 km/h (3 Bft) NO 40 0 min 0 W/m 3,2 C 0,9 C 18,5 km/h (3 Bft)
30.04.2013 20:45 7,5 C 73 % 1024,5 hPa 0,0 l/m 21,4 km/h (4 Bft) O-SO 115 0 min 0 W/m 3,0 C -0,4 C 21,4 km/h (4 Bft)
30.04.2013 21:00 7,3 C 74 % 1024,5 hPa 0,0 l/m 24,5 km/h (4 Bft) SO 135 0 min 0 W/m 3,0 C -1,7 C 24,5 km/h (4 Bft)
30.04.2013 21:15 7,2 C 74 % 1025,5 hPa 0,0 l/m 20,9 km/h (4 Bft) SO 145 0 min 0 W/m 2,9 C -0,7 C 20,9 km/h (4 Bft)
30.04.2013 21:30 7,1 C 74 % 1025,5 hPa 0,0 l/m 21,5 km/h (4 Bft) SO 130 0 min 0 W/m 2,8 C -1,0 C 21,5 km/h (4 Bft)
30.04.2013 21:45 7,0 C 73 % 1025,5 hPa 0,0 l/m 13,9 km/h (3 Bft) O-NO 70 0 min 0 W/m 2,5 C 2,0 C 13,9 km/h (3 Bft)
30.04.2013 22:00 7,0 C 73 % 1025,5 hPa 0,0 l/m 16,4 km/h (3 Bft) O-NO 75 0 min 0 W/m 2,5 C 0,9 C 16,4 km/h (3 Bft)
30.04.2013 22:15 6,9 C 73 % 1025,5 hPa 0,0 l/m 13,1 km/h (3 Bft) NO 55 0 min 0 W/m 2,4 C 2,3 C 13,1 km/h (3 Bft)
30.04.2013 22:30 6,8 C 73 % 1025,5 hPa 0,0 l/m 18,5 km/h (3 Bft) O-NO 65 0 min 0 W/m 2,3 C -0,3 C 18,5 km/h (3 Bft)
30.04.2013 22:45 6,8 C 73 % 1025,5 hPa 0,0 l/m 16,5 km/h (3 Bft) NO 55 0 min 0 W/m 2,3 C 0,6 C 16,5 km/h (3 Bft)
30.04.2013 23:00 6,7 C 73 % 1025,5 hPa 0,0 l/m 11,4 km/h (2 Bft) O-NO 60 0 min 0 W/m 2,2 C 3,1 C 11,4 km/h (2 Bft)
30.04.2013 23:15 6,7 C 74 % 1025,5 hPa 0,0 l/m 11,5 km/h (2 Bft) O-NO 75 0 min 0 W/m 2,4 C 3,0 C 11,5 km/h (2 Bft)
30.04.2013 23:30 6,5 C 75 % 1025,5 hPa 0,0 l/m 7,9 km/h (2 Bft) O-NO 65 0 min 0 W/m 2,4 C 5,3 C 7,9 km/h (2 Bft)
30.04.2013 23:45 6,4 C 75 % 1025,5 hPa 0,0 l/m 9,0 km/h (2 Bft) O 80 0 min 0 W/m 2,3 C 4,3 C 9,0 km/h (2 Bft)
_ Min-Zeit 23:45 10:59 00:00 - 23:30 - - - - 23:00 02:30 23:30
Minimum _ 6,4 C 71 % 1016,5 hPa - 7,9 km/h (2 Bft) - - - - 2,2 C -3,5 C 7,9 km/h (2 Bft)
_ Max-Zeit 11:30 06:45 21:15 00:00 03:00 - - 00:00 00:00 11:30 23:30 03:00
Maximum _ 11,2 C 81 % 1025,5 hPa 0,0 l/m 32,6 km/h
W (5 Bft)
- - 0 min 0 W/m 6,1 C 5,3 C 32,6 km/h
W (5 Bft)
Durchschnitt _ 8,5 C 75 % 1021,5 hPa #0,0 l/m 22,7 km/h (4 Bft) W - #0 min. 0 W/m 4,3 C 0,6 C 22,7 km/h (4 Bft)
copyright by Holger Just